Regional Weather Roundup
Issued by NWS

Home | Current Version | Previous Version | Graphics & Text | Print | Product List | Glossary On
Versions: 1 2 3 4 5 6 7 8 9 10 11 12 13 14 15 16 17 18 19 20 21 22 23 24 25 26 27 28 29 30 31 32 33 34 35 36 37 38 39 40 41 42 43 44 45 46 47 48 49 50
000
ASUS43 KLSX 120557
RWRMO

WEATHER SUMMARY FOR MISSOURI
NATIONAL WEATHER SERVICE SPRINGFIELD MO
1200 AM CST TUE DEC 12 2017

NOTE: "FAIR" INDICATES FEW OR NO CLOUDS BELOW 12,000 FEET WITH NO
       SIGNIFICANT WEATHER AND/OR OBSTRUCTIONS TO VISIBILITY.
       CURRENT SKY AND/OR WEATHER CONDITIONS ARE NOT AVAILABLE FOR
       CHILLICOTHE AND FARMINGTON.

MOZ001>031-035>038-043-044-053-054-120700-
...NORTHERN AND WESTERN MISSOURI...

CITY           SKY/WX    TMP DP  RH WIND       PRES   REMARKS
KANSAS CTY INT CLEAR     32  23  69 NW12      30.26R WCI  23
6HR MIN TEMP:  32; 6HR MAX TEMP:  47;

LEE`S SUMMIT   PTCLDY    35  25  66 NW17      30.24R WCI  25
6HR MIN TEMP:  35; 6HR MAX TEMP:  49; 6HR PCP: TRACE;

ST JOSEPH      CLEAR     29  23  78 N9        30.29S WCI  20
6HR MIN TEMP:  29; 6HR MAX TEMP:  44; 6HR PCP: TRACE;

CHILLICOTHE      N/A     30  18  60 N15G25    30.24R WCI  19
6HR MIN TEMP:  30; 6HR MAX TEMP:  46;


$$
MOZ066>068-077>081-088>096-101>105-120700-
...SOUTHWEST MISSOURI...

CITY           SKY/WX    TMP DP  RH WIND       PRES   REMARKS
SPRINGFIELD    CLOUDY    44  32  62 N18G26    30.15R
6HR MIN TEMP:  44; 6HR MAX TEMP:  52;

JOPLIN         PTCLDY    40  27  59 N15G31    30.25R
6HR MIN TEMP:  40; 6HR MAX TEMP:  53;


$$
MOZ032>034-039>042-045>050-055>058-069>072-120700-
...CENTRAL MISSOURI...

CITY           SKY/WX    TMP DP  RH WIND       PRES   REMARKS
COLUMBIA       NOT AVBL
JEFFERSON CITY CLOUDY    40  29  64 NW18G29   30.16R
6HR MIN TEMP:  40; 6HR MAX TEMP:  51;

ROLLA          CLOUDY    41  31  67 NW21G26   30.09R
6HR MIN TEMP:  41; 6HR MAX TEMP:  49;

SEDALIA        PTCLDY    35  25  66 NW22G30   30.21R WCI  23
6HR MIN TEMP:  35; 6HR MAX TEMP:  50;

WARRENSBURG    CLEAR     34  23  64 NW14G21   30.24R WCI  24

$$
MOZ051-052-059>065-120700-
...EAST CENTRAL MISSOURI...

CITY           SKY/WX    TMP DP  RH WIND       PRES   REMARKS
ST LOUIS INTL  CLOUDY    41  33  73 NW25G35   30.04R
6HR MIN TEMP:  41; 6HR MAX TEMP:  49;

SPIRIT OF STL  CLOUDY    43  32  65 NW17G31   30.06R

$$
MOZ072>076-082>087-097>100-106>115-120700-
...SOUTH CENTRAL AND SOUTHEAST MISSOURI...

CITY           SKY/WX    TMP DP  RH WIND       PRES   REMARKS
CAPE GIRARDEAU CLOUDY    48  32  53 NW12      29.99R
6HR MIN TEMP:  47; 6HR MAX TEMP:  54;

POPLAR BLUFF   CLOUDY    50  32  50 NW21G29   30.01R
6HR MIN TEMP:  50; 6HR MAX TEMP:  57;

WEST PLAINS    CLOUDY    45  29  53 NW10      30.07R
6HR MIN TEMP:  43; 6HR MAX TEMP:  52; 6HR PCP: TRACE;


$$



USA.gov is the U.S. government's official web portal to all federal, state and local government web resources and services.